FW1542 Weather Reports


time (UTC)temp
F
wind
direction
speed
knots
gust
knots
rain 1hr
in
rain 24hr
in
rain mn
in
humidity
%
barometer
mb
20260903063054 82 175 3.5 12.2 0.00 0.00 0.00 78 1013.3
20260903063028 82 179 4.3 12.2 0.00 0.00 0.00 78 1015.1
20260903061559 83 142 2.6 8.7 0.00 0.00 0.00 78 1013.4
20260903061536 83 146 2.6 8.7 0.00 0.00 0.00 78 1015.0
20260903060051 83 166 3.5 10.4 0.00 0.00 0.00 77 1013.2
20260903060024 83 141 3.5 9.6 0.00 0.00 0.00 78 1015.0
20260903054557 84 153 4.3 13.9 0.00 0.00 0.00 77 1013.0
20260903054540 84 189 3.5 13.9 0.00 0.00 0.00 77 1014.7
20260903053108 84 136 6.1 13.0 0.00 0.00 0.00 76 1013.2
20260903053019 84 107 5.2 13.0 0.00 0.00 0.00 76 1014.9
20260903051603 85 169 3.5 9.6 0.00 0.00 0.00 74 1013.1
20260903051517 85 170 3.5 7.8 0.00 0.00 0.00 74 1014.8
20260903050107 85 136 2.6 11.3 0.00 0.00 0.00 73 1013.0
20260903050014 85 136 2.6 9.6 0.00 0.00 0.00 73 1014.6
20260903044558 86 144 5.2 12.2 0.00 0.00 0.00 70 1013.0
20260903044513 86 144 5.2 12.2 0.00 0.00 0.00 70 1014.5
20260903043051 87 127 4.3 11.3 0.00 0.00 0.00 66 1012.9
20260903043011 87 154 5.2 10.4 0.00 0.00 0.00 67 1014.3
20260903041604 88 171 7.0 18.2 0.00 0.00 0.00 64 1013.0
20260903041514 88 148 7.0 16.5 0.00 0.00 0.00 64 1014.3
20260903040059 88 118 4.3 16.5 0.00 0.00 0.00 60 1012.8
20260903040011 88 186 5.2 16.5 0.00 0.00 0.00 60 1014.2
20260903034554 89 109 7.8 16.5 0.00 0.00 0.00 64 1012.6
20260903034510 89 172 7.8 16.5 0.00 0.00 0.00 65 1014.0
20260903033107 89 186 5.2 11.3 0.00 0.00 0.00 63 1012.1
20260903033009 89 123 5.2 11.3 0.00 0.00 0.00 63 1013.6
20260903031555 90 143 5.2 13.0 0.00 0.00 0.00 62 1011.8
20260903031508 90 157 5.2 13.0 0.00 0.00 0.00 62 1013.5
20260903030057 89 165 5.2 9.6 0.00 0.00 0.00 57 1011.7
20260903030018 89 134 6.1 9.6 0.00 0.00 0.00 57 1013.2
20260903024552 89 123 1.7 3.5 0.00 0.00 0.00 55 1011.3
20260903024508 89 123 1.7 3.5 0.00 0.00 0.00 56 1013.0
20260903023057 89 126 1.7 4.3 0.00 0.00 0.00 56 1011.0
20260903023010 89 141 2.6 4.3 0.00 0.00 0.00 56 1012.8
20260903021608 89 128 0.9 2.6 0.00 0.00 0.00 54 1011.0
20260903021509 89 129 0.9 2.6 0.00 0.00 0.00 55 1012.7
20260903020056 90 130 0.9 2.6 0.00 0.00 0.00 54 1010.9
20260903020007 90 130 0.9 2.6 0.00 0.00 0.00 54 1012.5
20260903014554 90 130 0.9 2.6 0.00 0.00 0.00 52 1010.6
20260903014507 90 130 0.9 2.6 0.00 0.00 0.00 53 1012.3
20260903013104 91 109 0.9 2.6 0.00 0.00 0.00 52 1010.5
20260903013005 91 109 0.9 2.6 0.00 0.00 0.00 52 1012.3
20260903011559 92 144 0.9 1.7 0.00 0.00 0.00 49 1010.5
20260903011507 92 144 0.9 1.7 0.00 0.00 0.00 49 1012.2
20260903010111 94 144 0.0 2.6 0.00 0.00 0.00 48 1010.4
20260903010004 94 144 0.9 2.6 0.00 0.00 0.00 48 1012.1
20260903004558 95 147 1.7 3.5 0.00 0.00 0.00 46 1010.3
20260903004504 95 147 0.9 3.5 0.00 0.00 0.00 47 1012.1
20260903003050 96 0 0.0 0.0 0.00 0.00 0.00 45 1010.4
20260903003002 96 190 0.0 0.0 0.00 0.00 0.00 45 1012.2
20260903001603 97 0 0.0 4.3 0.00 0.00 0.00 44 1010.4
20260903001501 97 145 0.0 2.6 0.00 0.00 0.00 44 1012.2
20260903000107 97 138 3.5 7.0 0.00 0.00 0.00 42 1012.3
20260903000104 97 152 2.6 7.0 0.00 0.00 0.00 42 1010.5
20260902234601 98 190 1.7 9.6 0.00 0.00 0.00 42 1012.4
20260902234552 98 267 1.7 9.6 0.00 0.00 0.00 42 1010.6
20260902233059 98 123 1.7 6.1 0.00 0.00 0.00 42 1012.4
20260902233057 98 131 2.6 6.1 0.00 0.00 0.00 41 1010.8
20260902231559 98 115 0.0 0.0 0.00 0.00 0.00 43 1012.4
20260902231555 98 0 0.0 0.0 0.00 0.00 0.00 43 1010.8
20260902230058 99 122 1.7 4.3 0.00 0.00 0.00 41 1012.4
20260902230053 99 150 0.0 5.2 0.00 0.00 0.00 41 1010.8
20260902224557 99 167 2.6 7.0 0.00 0.00 0.00 39 1012.5
20260902224552 99 192 0.9 7.0 0.00 0.00 0.00 39 1010.9
20260902223116 100 106 0.0 5.2 0.00 0.00 0.00 38 1010.9
20260902223103 100 177 1.7 5.2 0.00 0.00 0.00 38 1012.5
20260902221616 101 183 0.9 7.8 0.00 0.00 0.00 39 1011.0
20260902220059 101 0 0.0 7.0 0.00 0.00 0.00 38 1011.2
20260902220056 101 206 0.0 3.5 0.00 0.00 0.00 38 1012.8
20260902214556 100 123 1.7 7.8 0.00 0.00 0.00 39 1011.2
20260902214551 100 58 0.9 7.8 0.00 0.00 0.00 39 1012.9
20260902213101 100 103 1.7 7.8 0.00 0.00 0.00 39 1011.4
20260902213053 100 104 3.5 7.8 0.00 0.00 0.00 40 1012.9
20260902211611 100 246 0.9 7.0 0.00 0.00 0.00 38 1011.4
20260902211605 100 246 1.7 7.0 0.00 0.00 0.00 39 1013.1
20260902210053 100 120 3.5 7.8 0.00 0.00 0.00 41 1013.2
20260902204554 100 129 0.9 7.8 0.00 0.00 0.00 42 1011.9
20260902204547 100 103 2.6 7.0 0.00 0.00 0.00 42 1013.5
20260902203053 99 0 2.6 6.1 0.00 0.00 0.00 41 1012.1
20260902203043 99 109 1.7 6.1 0.00 0.00 0.00 41 1013.7
20260902201629 98 96 0.0 5.2 0.00 0.00 0.00 42 1012.4
20260902201548 99 101 1.7 4.3 0.00 0.00 0.00 43 1013.9
20260902200105 98 175 3.5 10.4 0.00 0.00 0.00 44 1012.8
20260902200037 98 169 2.6 9.6 0.00 0.00 0.00 45 1014.3
20260902194556 98 100 2.6 8.7 0.00 0.00 0.00 45 1013.0
20260902194539 98 91 1.7 8.7 0.00 0.00 0.00 46 1014.5
20260902193050 98 250 1.7 8.7 0.00 0.00 0.00 47 1013.1
20260902193033 98 250 1.7 8.7 0.00 0.00 0.00 47 1014.7
20260902191556 97 0 1.7 8.7 0.00 0.00 0.00 50 1013.4
20260902191529 97 129 0.9 7.8 0.00 0.00 0.00 51 1014.9
20260902190056 97 234 2.6 6.1 0.00 0.00 0.00 52 1013.6
20260902190026 97 255 3.5 7.0 0.00 0.00 0.00 52 1015.2
20260902184554 97 188 4.3 7.8 0.00 0.00 0.00 51 1013.9
20260902184523 97 159 3.5 7.0 0.00 0.00 0.00 52 1015.5
20260902183055 96 130 4.3 8.7 0.00 0.00 0.00 53 1014.2
20260902183019 96 130 3.5 8.7 0.00 0.00 0.00 53 1015.8
20260902181613 96 0 0.9 6.1 0.00 0.00 0.00 56 1014.4
20260902181518 96 201 0.9 6.1 0.00 0.00 0.00 56 1016.0
20260902180059 95 197 1.7 7.0 0.00 0.00 0.00 54 1014.9
20260902180018 95 215 0.9 7.0 0.00 0.00 0.00 55 1016.4
20260902174552 95 144 0.9 6.1 0.00 0.00 0.00 56 1015.0
20260902174512 95 132 0.9 6.1 0.00 0.00 0.00 57 1016.6
20260902173056 94 104 1.7 8.7 0.00 0.00 0.00 57 1015.2
20260902173009 94 129 2.6 7.8 0.00 0.00 0.00 57 1016.9
20260902171609 93 0 1.7 7.0 0.00 0.00 0.00 61 1015.2
20260902171506 93 217 1.7 7.0 0.00 0.00 0.00 60 1016.9
20260902170057 93 158 1.7 7.0 0.00 0.00 0.00 60 1015.6
20260902170003 93 86 1.7 7.0 0.00 0.00 0.00 61 1017.1
20260902164610 92 190 2.6 7.0 0.00 0.00 0.00 64 1017.2
20260902164557 92 101 1.7 7.0 0.00 0.00 0.00 64 1015.8
20260902163055 91 277 0.0 5.2 0.00 0.00 0.00 67 1017.2
20260902161602 90 0 0.0 3.5 0.00 0.00 0.00 68 1015.7
20260902161600 90 51 0.0 3.5 0.00 0.00 0.00 68 1017.1
20260902160049 89 235 1.7 5.2 0.00 0.00 0.00 70 1017.2
20260902154604 88 203 2.6 6.1 0.00 0.00 0.00 72 1015.6
20260902153056 87 201 1.7 8.7 0.00 0.00 0.00 74 1015.7
20260902153046 87 201 1.7 7.8 0.00 0.00 0.00 75 1017.4
20260902151603 86 183 1.7 6.1 0.00 0.00 0.00 76 1015.7
20260902151541 86 211 1.7 5.2 0.00 0.00 0.00 76 1017.5
20260902150052 86 115 0.0 8.7 0.00 0.00 0.00 77 1015.7
20260902150039 86 115 0.9 7.0 0.00 0.00 0.00 77 1017.3
20260902144555 84 173 2.6 5.2 0.00 0.00 0.00 80 1015.8
20260902144541 84 214 2.6 5.2 0.00 0.00 0.00 80 1017.5
20260902143053 84 163 1.7 6.1 0.00 0.00 0.00 81 1016.0
20260902143035 84 163 0.9 4.3 0.00 0.00 0.00 82 1017.5
20260902141555 83 142 2.6 5.2 0.00 0.00 0.00 82 1015.9
20260902141534 83 142 2.6 4.3 0.00 0.00 0.00 83 1017.5
20260902140055 82 182 1.7 4.3 0.00 0.00 0.00 85 1016.0
20260902140037 82 182 1.7 4.3 0.00 0.00 0.00 85 1017.4
20260902134611 80 192 0.9 3.5 0.00 0.00 0.00 88 1015.8
20260902134530 80 192 0.9 3.5 0.00 0.00 0.00 89 1017.3
20260902133059 79 188 0.0 2.6 0.00 0.00 0.00 91 1015.8
20260902133029 79 188 0.0 2.6 0.00 0.00 0.00 91 1017.1
20260902131552 78 0 0.0 1.7 0.00 0.00 0.00 92 1015.6
20260902131529 78 173 0.0 1.7 0.00 0.00 0.00 92 1017.0
20260902130051 77 0 0.0 1.7 0.00 0.00 0.00 92 1015.5
20260902130025 77 171 0.0 1.7 0.00 0.00 0.00 92 1016.9
20260902124605 77 0 0.0 3.5 0.00 0.00 0.00 91 1015.5
20260902124531 77 192 0.0 2.6 0.00 0.00 0.00 92 1016.7
20260902123053 77 0 0.0 2.6 0.00 0.00 0.00 90 1015.3
20260902123023 77 166 0.0 3.5 0.00 0.00 0.00 91 1016.7
20260902121551 77 0 0.0 3.5 0.00 0.00 0.00 90 1015.1
20260902121523 77 167 0.0 2.6 0.00 0.00 0.00 91 1016.5
20260902120048 78 0 0.0 3.5 0.00 0.00 0.00 90 1015.1
20260902120023 78 168 0.0 3.5 0.00 0.00 0.00 91 1016.5
20260902114557 78 173 0.0 4.3 0.00 0.00 0.00 90 1015.0
20260902114524 78 173 0.0 4.3 0.00 0.00 0.00 91 1016.4
20260902113056 77 0 0.0 3.5 0.00 0.00 0.00 90 1015.0
20260902113021 77 153 0.0 3.5 0.00 0.00 0.00 91 1016.4
20260902111554 77 0 0.0 3.5 0.00 0.00 0.00 89 1014.9
20260902111522 77 204 0.0 3.5 0.00 0.00 0.00 90 1016.4
20260902110049 77 0 0.0 1.7 0.00 0.00 0.00 88 1015.0
20260902110020 77 203 0.0 1.7 0.00 0.00 0.00 89 1016.3
20260902104554 77 0 0.0 1.7 0.00 0.00 0.00 87 1014.9
20260902104519 77 169 0.0 1.7 0.00 0.00 0.00 87 1016.2
20260902103057 77 140 0.9 2.6 0.00 0.00 0.00 86 1014.8
20260902103033 77 140 0.9 2.6 0.00 0.00 0.00 86 1016.1
20260902101554 77 137 1.7 3.5 0.00 0.00 0.00 86 1014.9
20260902101525 77 137 1.7 3.5 0.00 0.00 0.00 86 1016.3
20260902100055 77 0 0.0 2.6 0.00 0.00 0.00 85 1014.9
20260902100013 77 148 0.0 2.6 0.00 0.00 0.00 85 1016.4
20260902094554 77 149 0.9 1.7 0.00 0.00 0.00 84 1014.9
20260902094511 77 150 0.9 2.6 0.00 0.00 0.00 85 1016.3
20260902093114 77 169 0.0 3.5 0.00 0.00 0.00 83 1015.1
20260902093009 78 169 0.0 2.6 0.00 0.00 0.00 84 1016.4
20260902091552 78 0 0.0 2.6 0.00 0.00 0.00 83 1015.0
20260902091508 78 135 0.0 1.7 0.00 0.00 0.00 83 1016.3
20260902090008 78 112 0.9 3.5 0.00 0.00 0.00 83 1016.5
20260902084557 78 113 0.9 2.6 0.00 0.00 0.00 81 1015.1
20260902084506 78 113 0.9 1.7 0.00 0.00 0.00 81 1016.5
20260902083056 79 111 0.9 2.6 0.00 0.00 0.00 80 1014.9
20260902083003 79 111 0.9 2.6 0.00 0.00 0.00 81 1016.4
20260902081613 79 108 0.0 1.7 0.00 0.00 0.00 79 1015.0
20260902081502 79 108 0.0 1.7 0.00 0.00 0.00 79 1016.5
20260902080100 80 120 0.0 1.7 0.00 0.00 0.00 78 1016.5
20260902080056 80 0 0.0 2.6 0.00 0.00 0.00 77 1015.1
20260902074559 80 117 0.0 2.6 0.00 0.00 0.00 76 1016.7
20260902074556 80 117 0.0 2.6 0.00 0.00 0.00 76 1015.2
20260902073057 81 117 0.9 2.6 0.00 0.00 0.00 75 1016.5
20260902073052 81 117 0.9 2.6 0.00 0.00 0.00 75 1015.2
20260902071602 81 128 0.9 3.5 0.00 0.00 0.00 74 1016.6
20260902071556 81 128 1.7 5.2 0.00 0.00 0.00 74 1015.2
20260902070051 82 145 1.7 3.5 0.00 0.00 0.00 72 1016.7
20260902064616 82 0 3.5 7.8 0.00 0.00 0.00 71 1015.1
20260902064601 82 137 2.6 7.8 0.00 0.00 0.00 72 1016.5